Lampedusa, Italy

11:15 AM CET on December 17, 2017 (GMT +0100)
Lampedusa

Weather History for LICD - January, 2014

Change the Weather History Date:

Sunday, January 12, 2014

  Actual Average Record
Temperature  
Mean Temperature 62 °F -  
Max Temperature 64 °F 60 °F 66 °F (2016)
Min Temperature 59 °F 53 °F 50 °F (1999)
Degree Days  
Heating Degree Days 4    
Growing Degree Days 12 (Base 50)    
Moisture  
Dew Point 56 °F    
Average Humidity 86    
Maximum Humidity 94    
Minimum Humidity 63    
Precipitation  
Precipitation 0.00 in 0.05 in - ()
Sea Level Pressure  
Sea Level Pressure 30.12 in    
Wind  
Wind Speed 6 mph ()    
Max Wind Speed 15 mph    
Max Gust Speed -    
Visibility 6.1 miles    
Events Rain    
Averages and records for this station are not official NWS values.
T = Trace of Precipitation, MM = Missing Value Source: Averaged Metar Reports

Daily Weather History Graph

Daily Weather History Graph

Search for Another Location

Airport or City:

Trip Planner

Search our weather history database for the weather conditions in past years. The results will help you decide how hot, cold, wet, or windy it might be!

Date:

Astronomy

Jan. 12, 2014 Rise Set
Actual Time 7:18 AM CET 5:17 PM CET
Civil Twilight 6:51 AM CET 5:44 PM CET
Nautical Twilight 6:19 AM CET 6:16 PM CET
Astronomical Twilight 5:49 AM CET 6:46 PM CET
Moon 2:31 PM CET (1/12) 4:03 AM CET (1/12)
Length of Visible Light 10h 53m
Length of Day
9h 58m
Waxing Gibbous, 88% of the Moon is Illuminated
Jan 12
Waxing Gibbous
Jan 16
Full
Jan 24
Last Quarter
Jan 30
New
Feb 6
First Quarter

Hourly Weather History & Observations

Time (CET) Temp. Dew Point Humidity Pressure Visibility Wind Dir Wind Speed Gust Speed Precip Events Conditions
12:50 AM 60.8 °F 57.2 °F 88% 30.15 in - SSW 6.9 mph - N/A   Clear
1:50 AM 60.8 °F 59.0 °F 94% 30.15 in - South 6.9 mph - N/A   Clear
6:02 AM 60.8 °F 59.0 °F 94% 30.09 in - East 2.3 mph - N/A   Clear
6:15 AM 59.0 °F 57.2 °F 94% 30.12 in - North 3.5 mph - N/A   Clear
6:50 AM 59.0 °F 57.2 °F 94% 30.12 in - Calm Calm - N/A   Clear
7:50 AM 60.8 °F 57.2 °F 88% 30.12 in - East 2.3 mph - N/A   Clear
8:50 AM 60.8 °F 59.0 °F 94% 30.15 in 5.6 mi SSW 3.5 mph - N/A   Unknown
9:50 AM 62.6 °F 60.8 °F 94% 30.15 in - Calm Calm - N/A   Clear
10:50 AM 62.6 °F 50.0 °F 63% 30.15 in - NNW 3.5 mph - N/A   Clear
11:50 AM 64.4 °F 55.4 °F 73% 30.15 in - West 3.5 mph - N/A   Clear
12:50 PM 62.6 °F 51.8 °F 68% 30.12 in - West 5.8 mph - N/A   Clear
1:50 PM 62.6 °F 55.4 °F 77% 30.09 in - NW 8.1 mph - N/A   Clear
2:50 PM 60.8 °F 55.4 °F 82% 30.09 in 6.2 mi NNW 13.8 mph - N/A   Mostly Cloudy
3:50 PM 60.8 °F 55.4 °F 82% 30.09 in 6.2 mi NW 13.8 mph - N/A   Mostly Cloudy
4:50 PM 60.8 °F 55.4 °F 82% 30.09 in 6.2 mi NNW 11.5 mph - N/A   Mostly Cloudy
5:29 PM 59.0 °F 55.4 °F 88% 30.09 in 6.2 mi North 12.7 mph - N/A Rain Rain
5:50 PM 59.0 °F 55.4 °F 88% 30.09 in 6.2 mi North 13.8 mph - N/A   Mostly Cloudy
6:50 PM 59.0 °F 55.4 °F 88% 30.12 in 6.2 mi North 13.8 mph - N/A   Mostly Cloudy
7:50 PM 59.0 °F 57.2 °F 94% 30.12 in 6.2 mi NNW 11.5 mph - N/A   Scattered Clouds
8:50 PM 59.0 °F 55.4 °F 88% 30.12 in 6.2 mi NNW 15.0 mph - N/A   Scattered Clouds
9:50 PM 59.0 °F 55.4 °F 88% 30.12 in 6.2 mi NNW 9.2 mph - N/A   Scattered Clouds